RYR4PY LPPR-EGSS

Flight info

Callsign RYR4PY
Flight time N/A
Altitude 38000
Route TURON P600 ASDEB DCT LOTEE DCT OZNOH DCT ARTIV DCT DIKRO UM185 DESNA M185 TELTU
Aircraft B38M/M-SDE1FGHILORVWXY/HB1

Departure

Time 2026-05-06 09:01
Airport Francisco de Sá Carneiro Airport (LPPR)

Arrival

Time N/A
Airport London Stansted Airport (EGSS)
Time Latitude Longitude Altitude Speed Heading
2026-05-06 08:44 41.23506 -8.67282 247 ft 0 kts 114°
2026-05-06 08:55 41.23513 -8.67303 247 ft 4 kts 117°
2026-05-06 08:55 41.23527 -8.67333 245 ft 4 kts 129°
2026-05-06 08:55 41.23546 -8.67355 244 ft 4 kts 160°
2026-05-06 08:55 41.23563 -8.67355 243 ft 1 kts 212°
2026-05-06 08:56 41.23564 -8.67355 243 ft 1 kts 212°
2026-05-06 08:58 41.23563 -8.67356 243 ft 0 kts 212°
2026-05-06 08:58 41.23551 -8.67366 243 ft 4 kts 212°
2026-05-06 08:58 41.23516 -8.67390 242 ft 8 kts 191°
2026-05-06 08:58 41.23454 -8.67380 242 ft 10 kts 168°
2026-05-06 08:59 41.23376 -8.67362 241 ft 13 kts 175°
2026-05-06 08:59 41.23333 -8.67401 239 ft 6 kts 258°
2026-05-06 08:59 41.23327 -8.67470 238 ft 9 kts 260°
2026-05-06 08:59 41.23315 -8.67564 238 ft 12 kts 260°
2026-05-06 09:00 41.23302 -8.67645 239 ft 9 kts 254°
2026-05-06 09:00 41.23303 -8.67719 240 ft 7 kts 298°
2026-05-06 09:00 41.23342 -8.67742 240 ft 7 kts 346°
2026-05-06 09:00 41.23403 -8.67760 240 ft 12 kts 348°
2026-05-06 09:01 41.23680 -8.67830 232 ft 84 kts 349°
2026-05-06 09:01 41.24539 -8.68055 214 ft 163 kts 348°
2026-05-06 09:01 41.25749 -8.68420 813 ft 190 kts 347°
2026-05-06 09:01 41.27082 -8.68813 1822 ft 203 kts 349°
2026-05-06 09:02 41.28510 -8.69167 2512 ft 221 kts 350°
2026-05-06 09:02 41.30075 -8.69555 3070 ft 240 kts 350°
2026-05-06 09:02 41.31732 -8.69975 3950 ft 246 kts 350°
2026-05-06 09:02 41.33469 -8.70422 4557 ft 262 kts 350°
2026-05-06 09:03 41.35264 -8.70886 5474 ft 262 kts 350°
2026-05-06 09:03 41.37066 -8.71355 6383 ft 266 kts 350°
2026-05-06 09:03 41.38890 -8.71831 7237 ft 268 kts 349°
2026-05-06 09:03 41.40721 -8.72309 8113 ft 269 kts 349°
2026-05-06 09:04 41.42586 -8.72608 8903 ft 273 kts
2026-05-06 09:04 41.44466 -8.72174 9715 ft 277 kts
2026-05-06 09:04 41.46382 -8.71719 10391 ft 285 kts
2026-05-06 09:04 41.48394 -8.71228 10732 ft 304 kts 10°
2026-05-06 09:05 41.50525 -8.70698 11198 ft 318 kts 10°
2026-05-06 09:05 41.52729 -8.70145 11872 ft 323 kts 10°
2026-05-06 09:05 41.54952 -8.69584 12647 ft 328 kts 10°
2026-05-06 09:05 41.57216 -8.69011 13419 ft 333 kts 10°
2026-05-06 09:06 41.59482 -8.68438 14162 ft 338 kts 10°
2026-05-06 09:06 41.61815 -8.67846 14897 ft 342 kts 10°
2026-05-06 09:06 41.64162 -8.67250 15666 ft 345 kts
2026-05-06 09:06 41.66529 -8.66649 16413 ft 348 kts
2026-05-06 09:07 41.68922 -8.66039 17163 ft 351 kts
2026-05-06 09:07 41.71333 -8.65425 17878 ft 355 kts
2026-05-06 09:07 41.73774 -8.64803 18549 ft 359 kts
2026-05-06 09:07 41.76237 -8.64175 19163 ft 362 kts
2026-05-06 09:08 41.78694 -8.63548 19763 ft 365 kts
2026-05-06 09:08 41.81211 -8.62905 20367 ft 368 kts
2026-05-06 09:08 41.83744 -8.62258 20972 ft 371 kts
2026-05-06 09:08 41.86295 -8.61605 21564 ft 374 kts
2026-05-06 09:09 41.88826 -8.60957 22151 ft 377 kts
2026-05-06 09:09 41.91412 -8.60295 22729 ft 380 kts
2026-05-06 09:09 41.94018 -8.59627 23284 ft 383 kts
2026-05-06 09:09 41.96652 -8.58950 23810 ft 386 kts
2026-05-06 09:10 41.99292 -8.58272 24271 ft 389 kts
2026-05-06 09:10 42.01962 -8.57586 24725 ft 391 kts
2026-05-06 09:10 42.04647 -8.56895 25167 ft 394 kts
2026-05-06 09:10 42.07367 -8.56294 25605 ft 395 kts
2026-05-06 09:11 42.10111 -8.55895 26041 ft 398 kts
2026-05-06 09:11 42.12865 -8.55471 26485 ft 400 kts
2026-05-06 09:11 42.15640 -8.55030 26898 ft 403 kts